Location: Castagno
(43.9000°N, 11.6500°E)
Time: 14:55:22
(UTC+00:00)

Daily predictions for brighter satellites

Satellite Brightness Start Highest point End
(mag) Time Altitude Azimuth Time Altitude Azimuth Time Altitude Azimuth
Cosmos 2084 Rocket 3.7 18:10:10 10° NW 18:14:39 79° SW 18:19:07 10° SSE
Cosmos 1758 Rocket 4.5 18:11:59 10° NNE 18:15:44 28° ENE 18:19:28 10° SE
Abrixas rocket 3.2 18:14:03 10° W 18:16:51 37° N 18:19:39 10° ENE
STARLINK-1103 4.0 18:13:25 10° WNW 18:17:31 62° SW 18:21:36 10° SE
Cosmos 1953 2.6 18:17:10 10° SSE 18:20:57 44° E 18:24:45 10° NNE
Cosmos 1992 Rocket 4.1 18:16:40 10° NNW 18:21:51 61° ENE 18:26:59 10° SSE
Cosmos 2228 4.2 18:18:56 10° SE 18:22:15 22° E 18:25:37 10° NE
STARLINK-1101 4.2 18:18:27 10° WNW 18:22:31 56° SW 18:26:34 10° SE
Cosmos 1437 3.8 18:20:37 10° NNE 18:23:08 23° ENE 18:25:38 10° SE
Cosmos 1818 4.0 18:19:20 10° S 18:24:23 41° ESE 18:29:28 10° NE
STARLINK-1102 4.3 18:23:25 10° WNW 18:27:27 51° SW 18:31:28 10° SE
Cosmos 2263 4.4 18:23:50 10° NNW 18:29:21 54° ENE 18:34:49 10° SE
Meteor 2-15 Rocket 4.4 18:24:25 10° S 18:30:28 77° E 18:36:33 10° NNE
Cosmos 1470 3.4 18:27:17 10° SSW 18:31:07 61° W 18:35:00 10° N
STARLINK-1111 4.4 18:28:25 10° WNW 18:32:24 47° SW 18:36:22 10° SSE
Cosmos 1943 3.3 18:27:24 10° S 18:32:53 55° ESE 18:38:25 10° NNE
SL-08 RB Rocket 4.3 18:28:56 10° SE 18:33:07 38° ENE 18:37:22 10° N
ARGOS Delta rocket 4.2 18:28:56 10° SSE 18:34:11 89° ENE 18:39:41 10° N
CZ-2C R/B 2.9 18:32:47 10° SSE 18:37:39 65° ENE 18:42:24 10° N
Aureole 2 Rocket 2.6 18:34:31 10° NNW 18:38:00 72° WSW 18:41:22 10° SSE
BREEZE-M DEB (TANK) 2.5 18:31:30 10° WSW 18:38:18 75° NNW 18:40:53 10° ENE
H-2A R/B 2.0 18:42:08 10° SSE 18:47:24 88° ENE 18:52:32 10° NNW
NOSS 3-4 (A) 4.3 18:46:39 10° NNW 18:53:20 48° NE 18:58:54 18° ESE
NOSS 3-4 (C) 4.3 18:46:45 10° NNW 18:53:26 47° NE 18:58:59 18° ESE
Cosmos 1656 Rocket 3.8 18:49:46 10° NNW 18:55:21 57° ENE 18:59:39 17° SE
Resurs 1-3 4.1 18:55:38 18° SE 18:58:32 41° ENE 19:02:40 10° N
CZ-2C R/B 3.1 18:54:01 10° NNE 18:58:44 35° E 19:03:27 10° SSE
Aureole 1 Rocket 4.4 18:51:23 10° S 18:58:51 50° ESE 19:04:55 10° NNE
NOSS 3-3 (A) 4.3 18:55:19 10° SW 19:01:08 68° NW 19:07:43 10° NE
MetOp-A 4.3 18:56:24 12° SE 19:01:10 55° ENE 19:06:24 10° N
NOSS 3-3 (C) 4.3 18:55:24 10° SW 19:01:14 69° NW 19:07:49 10° NE
Cosmos 1726 2.2 18:57:47 10° S 19:01:31 81° W 19:05:17 10° N
Cosmos 2251 Rocket 4.3 18:56:24 10° SW 19:01:41 58° WNW 19:07:00 10° NNE
ARGOS 3.2 18:57:46 10° SSE 19:03:10 81° WSW 19:08:35 10° NNW
SJ-6B 3.0 19:02:37 10° S 19:06:43 81° WSW 19:10:53 10° NNW
STARLINK-60 3.3 19:03:44 10° SSW 19:06:52 44° SE 19:07:54 32° E
Cosmos 2184 Rocket 4.0 19:01:05 10° N 19:07:24 87° E 19:13:38 10° S
ISS -2.0 19:05:28 10° W 19:08:18 25° SW 19:10:16 15° S
BREEZE M DEB (TANK) 3.3 19:07:17 10° S 19:09:58 30° SE 19:15:49 10° ENE
Meteor 2-10 4.3 19:04:57 10° SSW 19:10:22 77° WNW 19:16:01 10° N
USA 186 3.0 19:08:36 10° S 19:11:49 42° W 19:14:56 10° NNW
STARLINK-67 4.4 19:12:19 10° NNW 19:14:18 19° NNE 19:14:43 19° NE
DMSP B5D2-2 4.1 19:10:51 10° NNE 19:16:01 59° E 19:21:10 10° S
Cosmos 2058 Rocket 3.3 19:16:34 18° SSE 19:19:44 51° E 19:24:07 10° NNE
Ariane Rocket 4.3 19:15:46 10° SSW 19:20:29 39° W 19:25:15 10° NNW
Resurs 01 Rocket 1.8 19:21:42 33° SE 19:23:23 52° ENE 19:27:40 10° N
MOS 1 Rocket 3.6 19:18:31 10° NNE 19:23:52 64° E 19:29:16 10° S
USA 234 3.4 19:18:38 10° ENE 19:24:59 51° SE 19:31:18 10° SSW
ATLAS 2AS CENTAUR R/B 2.8 19:18:20 10° NW 19:25:58 73° NE 19:29:59 28° SE
Cosmos 1190 Rocket 4.0 19:24:20 10° S 19:29:33 61° ESE 19:34:47 10° NNE
Cosmos 2154 Rocket 4.0 19:23:16 10° N 19:29:40 83° E 19:34:52 16° S
Nadezhda 1 Rocket 4.0 19:24:10 10° S 19:30:34 90° E 19:36:59 10° N
Cosmos 1140 Rocket 3.5 19:25:52 10° S 19:30:54 54° ESE 19:35:57 10° NNE
SL-4 R/B 1.9 19:28:53 10° WSW 19:32:15 62° NNW 19:33:43 30° NE
Spot 2 Rocket 4.2 19:31:32 33° E 19:32:41 37° ENE 19:37:21 10° N
Cosmos 1726 Rocket 3.7 19:28:43 10° SSW 19:33:06 74° W 19:37:33 10° N
Cosmos 1340 Rocket 2.7 19:32:48 28° S 19:34:51 73° E 19:38:54 10° NNE
ATLAS 5 CENTAUR R/B 1.4 19:32:54 10° SSW 19:36:56 59° ESE 19:41:25 10° NE
SL-24 R/B - RUBIN 2 4.1 19:34:56 10° SSW 19:40:24 76° ESE 19:46:39 10° NE
Cosmos 1328 4.4 19:37:02 10° NNW 19:40:57 54° W 19:43:15 23° SSW
Cosmos 1703 4.3 19:42:32 10° NNW 19:46:20 44° W 19:48:40 20° SSW
Cosmos 614 Rocket 4.3 19:42:45 10° SSW 19:47:56 66° WNW 19:53:09 10° NNE
Cosmos 2366 rocket 4.5 19:42:47 10° N 19:48:30 39° ENE 19:49:24 37° E
Cosmos 1300 3.6 19:50:48 37° NE 19:50:48 37° NE 19:53:22 10° NNE
SPOT 3 Rocket 4.3 19:45:41 15° S 19:49:55 52° W 19:55:00 10° NNW
Abrixas rocket 3.5 19:50:04 10° WNW 19:52:19 33° NNW 19:52:19 33° NNW
Cosmos 2369 Rocket 4.2 19:48:30 10° NW 19:53:00 25° WSW 19:57:28 10° SSW
COSMOS 2455 3.0 19:49:10 10° NNW 19:55:09 60° NE 19:56:39 46° ESE
Cosmos 921 Rocket 2.8 19:53:01 10° NNW 19:57:12 76° ENE 19:57:12 76° ENE
Cosmos 676 Rocket 3.9 19:56:21 45° SSE 19:57:51 65° ESE 20:03:04 10° NNE
Cosmos 407 Rocket 3.9 19:54:12 10° SSW 19:59:18 63° WNW 20:04:25 10° NNE
ERS-1 Rocket 3.7 20:07:39 37° NE 20:07:39 37° NE 20:11:51 10° N
Landsat 7 4.0 20:11:37 58° NE 20:11:37 58° NE 20:15:59 10° N
SPOT 1/Viking Rocket 3.7 20:14:31 57° ENE 20:14:31 57° ENE 20:19:33 10° N
MetOp-B 4.1 20:15:08 59° S 20:16:08 81° WSW 20:21:33 10° NNW
Cosmos 1461 3.3 20:15:33 10° NW 20:19:51 69° W 20:19:51 69° W
Cosmos 1954 Rocket 4.0 20:21:02 51° SSW 20:22:24 81° WNW 20:27:39 10° NNE
CZ-4C R/B 4.3 20:28:37 10° NNW 20:34:10 25° NNE 20:37:07 20° ENE
SPOT 5 4.0 20:36:47 32° NNE 20:36:47 32° NNE 20:39:18 10° N
Cosmos 1697 Rocket 4.1 20:31:06 10° N 20:35:27 25° NE 20:35:27 25° NE
CZ-2C R/B 4.2 20:34:26 10° N 20:38:57 31° WNW 20:43:28 10° SW
Cosmos 2058 4.5 20:41:58 10° NNW 20:44:18 33° NNW 20:44:18 33° NNW
Cosmos 1763 Rocket 4.2 20:45:45 10° NNW 20:49:35 45° NNE 20:49:35 45° NNE
Terra 3.1 20:55:01 35° N 20:55:01 35° N 20:57:55 10° N
Resurs 01 Rocket 4.0 20:59:16 15° WSW 21:00:10 16° W 21:02:50 10° NW
Cosmos 2218 Rocket 4.4 20:55:50 10° NNW 21:01:53 57° W 21:02:26 55° WSW
Cosmos 1980 Rocket 3.9 20:59:33 10° N 21:03:10 23° NE 21:03:10 23° NE
USA 234 3.8 21:01:40 10° NE 21:08:02 56° NNW 21:14:24 10° WSW
Cosmos 1656 4.3 21:06:19 10° NNW 21:10:37 51° N 21:10:37 51° N
ATLAS 2AS CENTAUR R/B 4.2 21:10:23 10° WNW 21:16:10 25° WSW 21:17:26 24° SW
ATLAS 5 CENTAUR R/B 4.0 21:18:38 10° W 21:22:00 22° NW 21:25:43 10° NNE
Mayak 1.7 21:30:21 10° NNE 21:30:35 11° NNE 21:30:35 11° NNE
Cosmos 1697 Rocket 4.4 22:14:32 10° NNW 22:17:11 28° NW 22:17:11 28° NW
CZ-4C R/B 3.3 22:16:39 10° NW 22:22:18 58° N 22:22:18 58° N
SL-16 R/B 4.1 22:29:30 10° N 22:32:21 25° NNE 22:32:21 25° NNE
Cosmos 2360 Rocket 4.4 22:36:41 10° N 22:39:33 18° NNE 22:39:33 18° NNE
Cosmos 2322 Rocket 4.1 22:39:25 10° N 22:42:08 24° N 22:42:08 24° N
Cosmos 1980 Rocket 4.2 22:42:53 10° NNW 22:44:56 23° NW 22:44:56 23° NW
Cosmos 2082 Rocket 4.2 23:15:18 24° NNW 23:15:18 24° NNW 23:18:05 10° N
Cosmos 2344 4.4 23:09:17 10° NW 23:18:38 71° WSW 23:18:38 71° WSW
SL-16 R/B 4.3 23:29:18 23° ENE 23:29:18 23° ENE 23:33:54 10° N
Cosmos 2219 Rocket 4.3 23:36:26 10° N 23:40:11 20° NE 23:40:11 20° NE
